Location: Arthez
(43.0833°N, 0.2500°W)
Time: 22:57:30
(UTC+00:00)

deb Kosmos-970 - Pass Details

Date: 25 August 2022
Orbit: 900 x 1112 km, 65.8° (Epoch: 28 September)

Event Time Altitude Azimuth Distance (km) Brightness Sun altitude
Rises 23:19:20 0° 323° (NW) 3,930 ? -35.5°
Reaches altitude 10° 23:22:08 10° 317° (NW) 2,953 ? -35.6°
Enters shadow 23:26:53 38° 286° (WNW) 1,582 ? -35.8°
